Location: Neuvy Saint Sepulchre
(46.5953°N, 1.8122°E)
Time: 14:34:42
(UTC+02:00)

ISS - Pass Details

Date: 29 September 2022
Orbit: 414 x 417 km, 51.6° (Epoch: 01 October)

Event Time Altitude Azimuth Distance (km) Brightness Sun altitude
Rises 22:05:46 0° 294° (WNW) 2,362 1.4 -25.7°
Reaches altitude 10° 22:07:56 10° 287° (WNW) 1,496 0.0 -26.1°
Enters shadow 22:09:34 24° 271° (W) 906 -1.5 -26.3°
